Barrow, AK

1:46 AM AKDT on June 25, 2017 (GMT -0800)
Wiley Post-Will Rogers Memorial

Weather History for PABR - October, 2012

Change the Weather History Date:

Monday, October 29, 2012

  Actual Average Record
Temperature  
Mean Temperature 25 °F 9 °F  
Max Temperature 27 °F 15 °F 41 °F (2016)
Min Temperature 23 °F 4 °F -22 °F (1975)
Degree Days  
Heating Degree Days 40 56  
Month to date heating degree days 1071 1369  
Since 1 July heating degree days 3223 3910  
Cooling Degree Days 0 0  
Month to date cooling degree days 0 0  
Year to date cooling degree days 0 0  
Moisture  
Dew Point 19 °F    
Average Humidity 0    
Maximum Humidity 0    
Minimum Humidity 0    
Precipitation  
Precipitation 0.04 in 0.01 in 0.17 in (1920)
Month to date precipitation 0.94 0.39  
Year to date precipitation 5.68 4.16  
Snow  
Snow 1.30 in 0.30 in 2.10 in (1997)
Month to date snowfall 11.6 8.5  
Since 1 July snowfall 17.6 14.0  
Since 1 September snowfall 17.4 12.9  
Snow Depth 5.00 in    
Sea Level Pressure  
Sea Level Pressure 29.95 in    
Wind  
Wind Speed 18 mph (NW)    
Max Wind Speed 26 mph    
Max Gust Speed 31 mph    
Visibility 4 miles    
Events Snow    
T = Trace of Precipitation, MM = Missing Value Source: NWS Daily Summary

Daily Weather History Graph

Daily Weather History Graph

Search for Another Location

Airport or City:

Trip Planner

Search our weather history database for the weather conditions in past years. The results will help you decide how hot, cold, wet, or windy it might be!

Date:

Astronomy

Oct. 29, 2012 Rise Set
Actual Time 11:01 AM AKDT 5:18 PM AKDT
Civil Twilight 9:41 AM AKDT 6:37 PM AKDT
Nautical Twilight 8:23 AM AKDT 7:56 PM AKDT
Astronomical Twilight 7:07 AM AKDT 9:11 PM AKDT
Moon 4:28 PM AKDT (10/29) 11:43 AM AKDT (10/29)
Length of Visible Light 8h 56m
Length of Day
6h 17m
Full, 100% of the Moon is Illuminated
Oct 29
Full
Nov 6
Last Quarter
Nov 13
New
Nov 20
First Quarter
Nov 28
Full

Hourly Weather History & Observations

Time (AKDT) Temp. Windchill Dew Point Humidity Pressure Visibility Wind Dir Wind Speed Gust Speed Precip Events Conditions
12:20 AM 26.6 °F 10.6 °F 19.4 °F 74% 29.92 in 1.5 mi WNW 28.8 mph - 0.00 in Snow Light Snow
12:22 AM 24.8 °F 9.0 °F 21.2 °F 86% 29.92 in 0.8 mi WNW 25.3 mph 31.1 mph 0.00 in Snow Light Snow
12:37 AM 24.8 °F 10.7 °F 21.2 °F 86% 29.92 in 2.0 mi WNW 19.6 mph - 0.00 in Snow Light Snow
12:46 AM 24.8 °F 10.3 °F 21.2 °F 86% 29.92 in 4.0 mi WNW 20.7 mph - 0.00 in Snow Blowing Snow
12:53 AM 25.0 °F 10.9 °F 21.0 °F 85% 29.93 in 5.0 mi WNW 19.6 mph - 0.00 in Snow Light Snow
1:04 AM 24.8 °F 10.3 °F 21.2 °F 86% 29.92 in 1.5 mi West 20.7 mph - 0.00 in Snow Light Snow
1:17 AM 24.8 °F 11.1 °F 21.2 °F 86% 29.92 in 2.0 mi West 18.4 mph - 0.00 in Snow Light Snow
1:24 AM 24.8 °F 11.5 °F 21.2 °F 86% 29.92 in 1.8 mi NW 17.3 mph - 0.00 in Snow Light Snow
1:37 AM 24.8 °F 12.4 °F 21.2 °F 86% 29.92 in 3.0 mi NW 15.0 mph - 0.00 in Snow Light Snow
1:51 AM 24.8 °F 11.1 °F 19.4 °F 80% 29.92 in 8.0 mi WNW 18.4 mph - 0.00 in Snow Light Snow
1:53 AM 25.0 °F 10.6 °F 19.0 °F 78% 29.92 in 8.0 mi WNW 20.7 mph - 0.00 in Snow Light Snow
2:53 AM 26.1 °F 12.0 °F 17.1 °F 69% 29.91 in 10.0 mi WNW 20.7 mph - 0.00 in   Mostly Cloudy
3:53 AM 27.0 °F 13.2 °F 18.0 °F 69% 29.90 in 10.0 mi WNW 20.7 mph - N/A   Overcast
4:53 AM 27.0 °F 12.8 °F 16.0 °F 63% 29.90 in 9.0 mi WNW 21.9 mph - 0.00 in Snow Light Snow
5:53 AM 26.1 °F 12.7 °F 21.0 °F 81% 29.89 in 2.5 mi WNW 18.4 mph - 0.00 in Snow Light Snow
6:00 AM 26.6 °F 13.1 °F 21.2 °F 80% 29.89 in 1.8 mi NNW 19.6 mph - 0.00 in Snow Light Snow
6:10 AM 24.8 °F 10.7 °F 21.2 °F 86% 29.89 in 0.8 mi NNW 19.6 mph 25.3 mph 0.00 in Snow Light Snow
6:14 AM 24.8 °F 10.3 °F 19.4 °F 80% 29.89 in 1.0 mi NNW 20.7 mph 27.6 mph 0.00 in Snow Light Snow
6:18 AM 26.6 °F 12.4 °F 19.4 °F 74% 29.89 in 2.0 mi NNW 21.9 mph 27.6 mph 0.00 in Snow Light Snow
6:27 AM 26.6 °F 12.0 °F 19.4 °F 74% 29.89 in 4.0 mi NNW 23.0 mph 28.8 mph 0.00 in Snow Light Snow
6:43 AM 24.8 °F 10.0 °F 17.6 °F 74% 29.90 in 4.0 mi NNW 21.9 mph 29.9 mph 0.00 in Snow Light Snow
6:53 AM 25.0 °F 10.2 °F 19.0 °F 78% 29.90 in 5.0 mi NW 21.9 mph - 0.00 in Snow Light Snow
7:10 AM 24.8 °F 9.6 °F 19.4 °F 80% 29.90 in 2.5 mi NW 23.0 mph - 0.00 in Snow Light Snow
7:21 AM 24.8 °F 10.7 °F 19.4 °F 80% 29.90 in 3.0 mi NW 19.6 mph 28.8 mph 0.00 in Snow Light Snow
7:53 AM 25.0 °F 10.6 °F 18.0 °F 75% 29.91 in 6.0 mi WNW 20.7 mph 26.5 mph 0.00 in Snow Light Snow
8:37 AM 24.8 °F 11.9 °F 19.4 °F 80% 29.92 in 3.0 mi NW 16.1 mph - 0.00 in Snow Light Snow
8:53 AM 25.0 °F 9.9 °F 17.1 °F 72% 29.92 in 3.0 mi NW 23.0 mph - 0.00 in Snow Light Snow
9:14 AM 24.8 °F 8.7 °F 19.4 °F 80% 29.92 in 4.0 mi NW 26.5 mph 31.1 mph 0.00 in Snow Light Snow
9:29 AM 23.0 °F 8.3 °F 17.6 °F 80% 29.92 in 2.0 mi NW 19.6 mph 31.1 mph 0.00 in Snow Light Snow
9:36 AM 24.8 °F 10.7 °F 17.6 °F 74% 29.92 in 4.0 mi NW 19.6 mph 25.3 mph 0.00 in Snow Light Snow
9:53 AM 23.0 °F 8.0 °F 19.0 °F 85% 29.93 in 3.0 mi NW 20.7 mph 29.9 mph 0.00 in Snow Light Snow
10:16 AM 24.8 °F 10.0 °F 15.8 °F 69% 29.92 in 3.0 mi NW 21.9 mph - 0.00 in Snow Light Snow
10:53 AM 25.0 °F 10.9 °F 16.0 °F 69% 29.94 in 10.0 mi NW 19.6 mph - 0.00 in   Overcast
11:04 AM 24.8 °F 10.3 °F 17.6 °F 74% 29.94 in 1.0 mi WNW 20.7 mph - 0.00 in Snow Light Snow
11:14 AM 24.8 °F 10.7 °F 17.6 °F 74% 29.94 in 1.0 mi WNW 19.6 mph - 0.00 in Snow Light Snow
11:18 AM 24.8 °F 10.7 °F 19.4 °F 80% 29.93 in 3.0 mi WNW 19.6 mph - 0.00 in Snow Light Snow
11:53 AM 25.0 °F 10.2 °F 17.1 °F 72% 29.94 in 9.0 mi NW 21.9 mph - 0.00 in   Mostly Cloudy
12:53 PM 25.0 °F 11.3 °F 16.0 °F 69% 29.95 in 10.0 mi NW 18.4 mph - N/A   Overcast
1:53 PM 24.1 °F 12.0 °F 19.0 °F 81% 29.96 in 3.0 mi WNW 13.8 mph - 0.00 in Snow Light Snow
2:53 PM 25.0 °F 10.9 °F 18.0 °F 75% 29.96 in 9.0 mi NW 19.6 mph - 0.00 in   Overcast
3:39 PM 24.8 °F 11.5 °F 19.4 °F 80% 29.97 in 1.5 mi NW 17.3 mph - 0.00 in Snow Light Snow
3:53 PM 25.0 °F 12.2 °F 21.0 °F 85% 29.98 in 1.8 mi NNW 16.1 mph - 0.00 in Snow Light Snow
4:01 PM 24.8 °F 11.9 °F 19.4 °F 80% 29.97 in 2.0 mi NW 16.1 mph 26.5 mph 0.00 in Snow Light Snow
4:21 PM 24.8 °F 11.5 °F 21.2 °F 86% 29.97 in 0.8 mi NNW 17.3 mph 24.2 mph 0.00 in Snow Light Snow
4:37 PM 24.8 °F 11.5 °F 19.4 °F 80% 29.97 in 1.5 mi NW 17.3 mph - 0.00 in Snow Light Snow
4:53 PM 25.0 °F 10.6 °F 21.0 °F 85% 29.98 in 2.0 mi NW 20.7 mph - 0.01 in Snow Light Snow
5:24 PM 24.8 °F 10.0 °F 19.4 °F 80% 29.98 in 4.0 mi NNW 21.9 mph - 0.00 in Snow Light Snow
5:53 PM 25.0 °F 11.7 °F 19.9 °F 81% 29.99 in 2.5 mi NW 17.3 mph - 0.00 in Snow Light Snow
6:24 PM 24.8 °F 11.5 °F 21.2 °F 86% 30.00 in 2.5 mi NNW 17.3 mph - 0.01 in Snow Light Snow
6:53 PM 25.0 °F 11.3 °F 19.0 °F 78% 30.01 in 8.0 mi NW 18.4 mph - 0.01 in Snow Light Snow
7:03 PM 24.8 °F 11.5 °F 19.4 °F 80% 30.00 in 7.0 mi NNW 17.3 mph - 0.00 in Snow Light Snow
7:53 PM 25.0 °F 13.1 °F 19.0 °F 78% 30.01 in 9.0 mi NNW 13.8 mph - 0.00 in Snow Light Snow
8:14 PM 26.6 °F 15.7 °F 21.2 °F 80% 30.01 in 1.8 mi NNW 12.7 mph - 0.00 in Snow Light Snow
8:35 PM 26.6 °F 16.2 °F 21.2 °F 80% 30.02 in 3.0 mi NNW 11.5 mph 17.3 mph 0.00 in Snow Light Snow
8:53 PM 26.1 °F 15.6 °F 21.0 °F 81% 30.03 in 3.0 mi NNW 11.5 mph - 0.00 in Snow Light Snow
9:30 PM 26.6 °F 15.7 °F 21.2 °F 80% 30.03 in 5.0 mi NNW 12.7 mph - 0.00 in Snow Light Snow
9:53 PM 26.1 °F 14.5 °F 19.9 °F 78% 30.05 in 6.0 mi North 13.8 mph - 0.01 in Snow Light Snow
10:53 PM 27.0 °F 15.2 °F 18.0 °F 69% 30.08 in 9.0 mi North 15.0 mph - 0.00 in Snow Light Snow
11:53 PM 27.0 °F 14.7 °F 17.1 °F 66% 30.11 in 9.0 mi North 16.1 mph 21.9 mph 0.00 in Snow Light Snow